| time (UTC) | temp F | wind direction | speed MPH | gust MPH | rain 1hr in | rain 24hr in | rain mn in | humidity % | barometer mb |
| 20260902104556 | 76 | 224 | 1.0 | 3.0 | 0.00 | 0.00 | 0.00 | 75 | 1012.5 |
| 20260902103100 | 76 | 224 | 0.0 | 0.0 | 0.00 | 0.00 | 0.00 | 75 | 1012.4 |
| 20260902101550 | 76 | 224 | 0.0 | 3.0 | 0.00 | 0.00 | 0.00 | 76 | 1012.4 |
| 20260902100049 | 77 | 224 | 1.0 | 4.0 | 0.00 | 0.00 | 0.00 | 75 | 1012.4 |
| 20260902094548 | 77 | 224 | 2.0 | 5.0 | 0.00 | 0.00 | 0.00 | 74 | 1012.5 |
| 20260902093047 | 77 | 224 | 2.0 | 6.0 | 0.00 | 0.00 | 0.00 | 73 | 1012.6 |
| 20260902091547 | 78 | 225 | 1.0 | 2.0 | 0.00 | 0.00 | 0.00 | 71 | 1012.8 |
| 20260902090044 | 78 | 225 | 0.0 | 3.0 | 0.00 | 0.00 | 0.00 | 70 | 1012.7 |
| 20260902084543 | 78 | 225 | 2.0 | 6.0 | 0.00 | 0.00 | 0.00 | 69 | 1012.8 |
| 20260902083044 | 78 | 225 | 1.0 | 5.0 | 0.00 | 0.00 | 0.00 | 67 | 1012.9 |
| 20260902081547 | 78 | 223 | 0.0 | 4.0 | 0.00 | 0.00 | 0.00 | 66 | 1012.9 |
| 20260902080051 | 79 | 222 | 3.0 | 8.0 | 0.00 | 0.00 | 0.00 | 66 | 1012.9 |
| 20260902074547 | 78 | 202 | 3.0 | 8.0 | 0.00 | 0.00 | 0.00 | 67 | 1013.0 |
| 20260902073048 | 79 | 28 | 1.0 | 4.0 | 0.00 | 0.00 | 0.00 | 66 | 1013.0 |
| 20260902071541 | 80 | 30 | 2.0 | 4.0 | 0.00 | 0.00 | 0.00 | 66 | 1013.0 |
| 20260902070038 | 80 | 30 | 0.0 | 4.0 | 0.00 | 0.00 | 0.00 | 63 | 1012.9 |
| 20260902064537 | 81 | 30 | 0.0 | 5.0 | 0.00 | 0.00 | 0.00 | 63 | 1013.0 |
| 20260902063036 | 81 | 30 | 0.0 | 3.0 | 0.00 | 0.00 | 0.00 | 61 | 1012.9 |
| 20260902061534 | 81 | 33 | 2.0 | 6.0 | 0.00 | 0.00 | 0.00 | 61 | 1012.8 |
| 20260902060033 | 82 | 51 | 2.0 | 9.0 | 0.00 | 0.00 | 0.00 | 59 | 1012.7 |
| 20260902054534 | 82 | 73 | 4.0 | 10.0 | 0.00 | 0.00 | 0.00 | 59 | 1012.6 |
| 20260902053031 | 82 | 25 | 4.0 | 13.0 | 0.00 | 0.00 | 0.00 | 57 | 1012.6 |
| 20260902051527 | 76 | 64 | 7.0 | 13.0 | 0.00 | 0.00 | 0.00 | 63 | 1012.6 |
| 20260902050023 | 76 | 34 | 0.0 | 0.0 | 0.00 | 0.00 | 0.00 | 61 | 1012.4 |
| 20260902044521 | 77 | 34 | 0.0 | 2.0 | 0.00 | 0.00 | 0.00 | 60 | 1012.3 |
| 20260902043020 | 77 | 34 | 1.0 | 2.0 | 0.00 | 0.00 | 0.00 | 59 | 1012.3 |
| 20260902041521 | 79 | 34 | 0.0 | 2.0 | 0.00 | 0.00 | 0.00 | 57 | 1012.4 |
| 20260902040021 | 80 | 34 | 0.0 | 0.0 | 0.00 | 0.00 | 0.00 | 54 | 1012.2 |
| 20260902034519 | 81 | 34 | 0.0 | 2.0 | 0.00 | 0.00 | 0.00 | 52 | 1012.2 |
| 20260902033019 | 83 | 34 | 0.0 | 3.0 | 0.00 | 0.00 | 0.00 | 50 | 1012.1 |
| 20260902031518 | 84 | 34 | 1.0 | 3.0 | 0.00 | 0.00 | 0.00 | 48 | 1011.9 |
| 20260902030019 | 85 | 34 | 1.0 | 4.0 | 0.00 | 0.00 | 0.00 | 46 | 1011.8 |
| 20260902024517 | 86 | 34 | 2.0 | 5.0 | 0.00 | 0.00 | 0.00 | 46 | 1011.5 |
| 20260902023034 | 86 | 44 | 0.0 | 4.0 | 0.00 | 0.00 | 0.00 | 45 | 1011.2 |
| 20260902021527 | 87 | 42 | 1.0 | 4.0 | 0.00 | 0.00 | 0.00 | 44 | 1011.0 |
| 20260902020017 | 87 | 42 | 1.0 | 3.0 | 0.00 | 0.00 | 0.00 | 43 | 1010.7 |
| 20260902014514 | 88 | 42 | 0.0 | 1.0 | 0.00 | 0.00 | 0.00 | 42 | 1010.6 |
| 20260902013017 | 89 | 42 | 2.0 | 3.0 | 0.00 | 0.00 | 0.00 | 41 | 1010.5 |
| 20260902011514 | 89 | 42 | 3.0 | 5.0 | 0.00 | 0.00 | 0.00 | 40 | 1010.3 |
| 20260902010014 | 90 | 51 | 2.0 | 5.0 | 0.00 | 0.00 | 0.00 | 39 | 1010.3 |
| 20260902004515 | 91 | 122 | 1.0 | 6.0 | 0.00 | 0.00 | 0.00 | 39 | 1010.3 |
| 20260902003015 | 91 | 88 | 2.0 | 7.0 | 0.00 | 0.00 | 0.00 | 38 | 1010.3 |
| 20260902001512 | 92 | 102 | 2.0 | 9.0 | 0.00 | 0.00 | 0.00 | 38 | 1010.3 |
| 20260902000014 | 92 | 66 | 2.0 | 9.0 | 0.00 | 0.00 | 0.00 | 37 | 1010.2 |
| 20260901234511 | 92 | 54 | 2.0 | 5.0 | 0.00 | 0.00 | 0.00 | 37 | 1010.3 |
| 20260901233010 | 94 | 360 | 3.0 | 8.0 | 0.00 | 0.00 | 0.00 | 36 | 1010.2 |
| 20260901231510 | 94 | 61 | 3.0 | 8.0 | 0.00 | 0.00 | 0.00 | 37 | 1010.2 |
| 20260901230009 | 93 | 80 | 1.0 | 13.0 | 0.00 | 0.00 | 0.00 | 37 | 1010.0 |
| 20260901224508 | 94 | 92 | 3.0 | 8.0 | 0.00 | 0.00 | 0.00 | 35 | 1010.0 |
| 20260901223015 | 96 | 69 | 3.0 | 7.0 | 0.00 | 0.00 | 0.00 | 33 | 1009.9 |
| 20260901221507 | 97 | 28 | 4.0 | 9.0 | 0.00 | 0.00 | 0.00 | 32 | 1010.0 |
| 20260901220007 | 96 | 132 | 3.0 | 10.0 | 0.00 | 0.00 | 0.00 | 33 | 1010.0 |
| 20260901214505 | 97 | 349 | 3.0 | 9.0 | 0.00 | 0.00 | 0.00 | 33 | 1010.1 |
| 20260901213006 | 97 | 65 | 2.0 | 8.0 | 0.00 | 0.00 | 0.00 | 32 | 1010.1 |
| 20260901211502 | 96 | 125 | 2.0 | 8.0 | 0.00 | 0.00 | 0.00 | 33 | 1010.5 |
| 20260901210105 | 99 | 170 | 6.0 | 17.0 | 0.00 | 0.00 | 0.00 | 32 | 1010.6 |
| 20260901204608 | 97 | 205 | 3.0 | 12.0 | 0.00 | 0.00 | 0.00 | 34 | 1010.9 |
| 20260901203107 | 96 | 103 | 3.0 | 12.0 | 0.00 | 0.00 | 0.00 | 35 | 1011.1 |
| 20260901201552 | 96 | 98 | 3.0 | 7.0 | 0.00 | 0.00 | 0.00 | 35 | 1011.4 |
| 20260901200049 | 98 | 181 | 4.0 | 10.0 | 0.00 | 0.00 | 0.00 | 33 | 1011.7 |
| 20260901194550 | 95 | 99 | 2.0 | 9.0 | 0.00 | 0.00 | 0.00 | 35 | 1011.9 |
| 20260901193052 | 97 | 46 | 3.0 | 9.0 | 0.00 | 0.00 | 0.00 | 35 | 1012.2 |
| 20260901191543 | 96 | 150 | 3.0 | 9.0 | 0.00 | 0.00 | 0.00 | 35 | 1012.3 |
| 20260901190041 | 97 | 106 | 2.0 | 10.0 | 0.00 | 0.00 | 0.00 | 35 | 1012.5 |
| 20260901184537 | 96 | 196 | 4.0 | 10.0 | 0.00 | 0.00 | 0.00 | 35 | 1012.7 |
| 20260901183044 | 96 | 82 | 2.0 | 8.0 | 0.00 | 0.00 | 0.00 | 35 | 1013.0 |
| 20260901181534 | 95 | 5 | 4.0 | 11.0 | 0.00 | 0.00 | 0.00 | 36 | 1013.2 |
| 20260901180033 | 95 | 50 | 2.0 | 9.0 | 0.00 | 0.00 | 0.00 | 35 | 1013.5 |
| 20260901174532 | 95 | 5 | 5.0 | 13.0 | 0.00 | 0.00 | 0.00 | 35 | 1013.6 |
| 20260901173047 | 95 | 107 | 4.0 | 11.0 | 0.00 | 0.00 | 0.00 | 35 | 1013.8 |
| 20260901171530 | 93 | 125 | 3.0 | 11.0 | 0.00 | 0.00 | 0.00 | 37 | 1013.9 |
| 20260901170028 | 93 | 150 | 3.0 | 9.0 | 0.00 | 0.00 | 0.00 | 39 | 1014.1 |
| 20260901164526 | 93 | 184 | 5.0 | 10.0 | 0.00 | 0.00 | 0.00 | 40 | 1014.1 |
| 20260901163026 | 94 | 207 | 6.0 | 11.0 | 0.00 | 0.00 | 0.00 | 40 | 1014.0 |
| 20260901161522 | 92 | 205 | 3.0 | 10.0 | 0.00 | 0.00 | 0.00 | 42 | 1014.1 |
| 20260901160027 | 91 | 161 | 6.0 | 10.0 | 0.00 | 0.00 | 0.00 | 42 | 1014.2 |
| 20260901154519 | 89 | 156 | 1.0 | 7.0 | 0.00 | 0.00 | 0.00 | 49 | 1014.1 |
| 20260901153015 | 88 | 156 | 3.0 | 9.0 | 0.00 | 0.00 | 0.00 | 47 | 1014.1 |
| 20260901151513 | 86 | 167 | 3.0 | 7.0 | 0.00 | 0.00 | 0.00 | 51 | 1014.1 |
| 20260901150010 | 86 | 213 | 4.0 | 7.0 | 0.00 | 0.00 | 0.00 | 53 | 1014.0 |
| 20260901144505 | 85 | 224 | 3.0 | 5.0 | 0.00 | 0.00 | 0.00 | 58 | 1014.0 |
| 20260901143103 | 83 | 235 | 2.0 | 7.0 | 0.00 | 0.00 | 0.00 | 65 | 1014.1 |
| 20260901141604 | 80 | 240 | 1.0 | 4.0 | 0.00 | 0.00 | 0.00 | 73 | 1014.2 |
| 20260901140106 | 79 | 241 | 1.0 | 3.0 | 0.00 | 0.00 | 0.00 | 76 | 1014.1 |
| 20260901134612 | 77 | 241 | 0.0 | 4.0 | 0.00 | 0.00 | 0.00 | 81 | 1014.2 |
| 20260901133058 | 75 | 229 | 2.0 | 4.0 | 0.00 | 0.00 | 0.00 | 84 | 1014.2 |
| 20260901131556 | 73 | 226 | 2.0 | 4.0 | 0.00 | 0.00 | 0.00 | 85 | 1014.1 |
| 20260901130053 | 73 | 223 | 0.0 | 0.0 | 0.00 | 0.00 | 0.00 | 85 | 1013.9 |
| 20260901124552 | 72 | 223 | 0.0 | 3.0 | 0.00 | 0.00 | 0.00 | 85 | 1013.7 |
| 20260901123051 | 73 | 223 | 0.0 | 1.0 | 0.00 | 0.00 | 0.00 | 85 | 1013.5 |
| 20260901121550 | 73 | 223 | 0.0 | 3.0 | 0.00 | 0.00 | 0.00 | 85 | 1013.5 |
| 20260901120055 | 73 | 223 | 0.0 | 2.0 | 0.00 | 0.00 | 0.00 | 84 | 1013.4 |
| 20260901114548 | 74 | 223 | 1.0 | 3.0 | 0.00 | 0.00 | 0.00 | 84 | 1013.4 |
| 20260901113048 | 74 | 223 | 0.0 | 2.0 | 0.00 | 0.00 | 0.00 | 84 | 1013.4 |
| 20260901111551 | 74 | 223 | 0.0 | 3.0 | 0.00 | 0.00 | 0.00 | 84 | 1013.5 |
| 20260901110048 | 74 | 223 | 1.0 | 3.0 | 0.00 | 0.00 | 0.00 | 84 | 1013.5 |